Location: Kelowna
(49.9000°N, 119.4830°W)
Time: 03:30:17
(UTC-07:00)

Tiangong 2 - Visible Passes

Search period start: 24 June 2018 00:00
Search period end: 04 July 2018 00:00
Orbit: 385 x 396 km, 42.8° (Epoch: 24 June)

Date Brightness Start Highest point End Pass type
(mag) Time Alt. Az. Time Alt. Az. Time Alt. Az.
30 Jun 3.5 03:26:16 10° SSE 03:26:43 10° SSE 03:27:11 10° SSE visible
01 Jul 2.9 04:03:18 10° SSW 04:05:35 18° SSE 04:07:52 10° ESE visible
02 Jul 3.1 03:07:57 14° S 03:08:19 15° SSE 03:10:10 10° SE visible
03 Jul 2.6 03:45:13 13° SW 03:47:15 21° S 03:49:46 10° ESE visible
